STARLINK M (44246 NORAD) Tracking and Keplerian Element Data

This shows tracking and keplerian element data for the satellite.

Feedback or suggestion? Click here.




ElementValue
Catalog44246
NameSTARLINK M
Epoch Orbit467
Epoch Day174.45491022
Epoch Year2019
RAAN35.8728
Inclination53.0018
Eccentricity0.0001826
Argument of Perigee111.3853
Mean Anonmoly248.7329
Mean Motion15.05475138
Decay Rate-6.342E-05
L11 44246U 19029M 19174.45491022 -.00006342 00000-0 -41762-3 0 9990
L22 44246 53.0018 35.8728 0001826 111.3853 248.7329 15.05475138 4672

Live tracking and technical data element details for STARLINK M (NORAD 44246). STARLINK M can be tracked NOW for your location showing map with azimuth and elevation plus other details from your city location.

Track the satellite on the map from your city or location and see movement details for azimuth, elevation, latitude, longitude, range, height, and movement on the map or in text.







IsCatalogInMostPopularTable: catalog: 44246, numindb: 33
Update: records affected: 1



GetName: 44246 STARLINK M

Hit Count: updated at: Sun, 21 Jul 2019 21:29:55 GMT